DW1274 Weather Reports


Display with metric or nautical units.
time (UTC)temp
F
wind
direction
speed
MPH
gust
MPH
rain 1hr
in
rain 24hr
in
rain mn
in
humidity
%
barometer
mb
20260903073429 78 348 1.0 2.0 0.00 0.17 0.00 94 1013.4
20260903072930 78 5 0.0 2.0 0.00 0.17 0.00 94 1013.4
20260903072431 78 0 0.0 1.0 0.00 0.17 0.00 94 1013.4
20260903071930 78 0 0.0 2.0 0.00 0.17 0.00 94 1013.4
20260903071430 78 0 0.0 2.0 0.00 0.17 0.00 94 1013.5
20260903070929 78 0 0.0 1.0 0.00 0.17 0.00 94 1013.6
20260903070429 78 0 0.0 2.0 0.00 0.17 0.00 94 1013.7
20260903065929 78 0 0.0 2.0 0.00 0.17 0.00 93 1013.7
20260903065434 78 257 0.0 2.0 0.00 0.17 0.00 93 1013.7
20260903064930 78 0 0.0 2.0 0.00 0.17 0.00 93 1013.7
20260903064430 78 0 0.0 2.0 0.00 0.17 0.00 93 1013.6
20260903063933 78 339 0.0 2.0 0.00 0.17 0.00 93 1013.7
20260903063429 78 0 0.0 0.0 0.00 0.17 0.00 93 1013.8
20260903062929 78 0 0.0 0.0 0.00 0.17 0.00 93 1013.8
20260903061930 78 99 0.0 1.0 0.00 0.17 0.00 93 1014.0
20260903061429 79 0 0.0 2.0 0.00 0.17 0.00 93 1014.0
20260903060430 79 0 1.0 3.0 0.00 0.17 0.00 93 1014.1
20260903055925 79 21 1.0 3.0 0.00 0.17 0.00 93 1014.2
20260903055426 79 217 1.0 2.0 0.00 0.17 0.00 93 1014.2
20260903054925 79 14 1.0 3.0 0.00 0.17 0.00 93 1014.3
20260903053925 79 358 2.0 4.0 0.00 0.17 0.00 93 1014.4
20260903053425 79 0 2.0 4.0 0.00 0.17 0.00 93 1014.4
20260903052928 79 0 2.0 4.0 0.00 0.17 0.00 93 1014.5
20260903052425 79 60 2.0 4.0 0.00 0.17 0.00 93 1014.4
20260903051925 79 53 1.0 4.0 0.00 0.17 0.00 93 1014.4
20260903051425 79 191 2.0 5.0 0.00 0.17 0.00 93 1014.4
20260903050912 79 24 3.0 5.0 0.00 0.17 0.00 93 1014.4
20260903045903 78 354 3.0 5.0 0.00 0.17 0.00 93 1014.3
20260903045402 78 298 2.0 5.0 0.00 0.17 0.00 93 1014.3
20260903044902 78 20 2.0 4.0 0.00 0.17 0.00 93 1014.4
20260903044402 78 5 2.0 4.0 0.00 0.17 0.00 93 1014.4
20260903043901 78 12 2.0 4.0 0.00 0.17 0.00 93 1014.5
20260903043401 78 25 2.0 4.0 0.00 0.17 0.00 93 1014.5
20260903042902 78 356 2.0 4.0 0.00 0.17 0.00 93 1014.5
20260903041403 78 25 2.0 5.0 0.00 0.17 0.00 93 1014.5
20260903040400 78 241 2.0 4.0 0.00 0.17 0.00 93 1014.5
20260903035900 78 344 2.0 4.0 0.00 0.17 0.17 93 1014.5
20260903034901 78 8 1.0 3.0 0.00 0.17 0.17 93 1014.6
20260903034401 78 30 1.0 3.0 0.00 0.17 0.17 93 1014.7
20260903033901 78 229 1.0 3.0 0.00 0.17 0.17 93 1014.8
20260903032902 77 38 1.0 3.0 0.00 0.17 0.17 93 1014.6
20260903031901 77 356 0.0 2.0 0.00 0.17 0.17 93 1014.6
20260903031401 77 0 0.0 2.0 0.00 0.17 0.17 93 1014.7
20260903030901 77 0 1.0 2.0 0.00 0.17 0.17 93 1014.7
20260903025901 77 352 1.0 2.0 0.00 0.17 0.17 93 1014.7
20260903024402 76 0 0.0 2.0 0.00 0.17 0.17 93 1015.0
20260903023901 76 340 0.0 2.0 0.00 0.17 0.17 93 1014.9
20260903022901 0 0 0.0 0.0 0.00 0.17 0.17
20260903022402 0 0 0.0 0.0 0.00 0.17 0.17
20260903021902 76 0 0.0 0.0 0.00 0.17 0.17 92 1014.8
20260903021405 76 0 0.0 0.0 0.00 0.17 0.17 92 1014.8
20260903020902 76 0 1.0 4.0 0.00 0.17 0.17 92 1014.8
20260903020353 76 0 1.0 4.0 0.00 0.17 0.17 92 1014.8
20260903015834 0 0 1.0 2.0 0.00 0.17 0.17
20260903015330 0 32 1.0 2.0 0.00 0.17 0.17
20260903014830 0 0 0.0 0.0 0.00 0.17 0.17
20260903014330 0 0 0.0 0.0 0.00 0.17 0.17
20260903013833 76 349 0.0 0.0 0.00 0.17 0.17 92 1014.7
20260903012801 76 349 0.0 3.0 0.00 0.17 0.17 92 1014.7
20260903012306 77 349 0.0 3.0 0.00 0.17 0.17 92 1014.7
20260903011802 78 0 0.0 3.0 0.00 0.17 0.17 89 1014.5
20260903011255 78 0 1.0 3.0 0.00 0.17 0.17 88 1014.4
20260903010249 78 47 1.0 3.0 0.00 0.17 0.17 88 1014.4
20260903005730 0 0 0.0 0.0 0.00 0.17 0.17
20260903005231 0 0.0 0.0 0.00 0.17 0.17
20260903004230 0 0.0 0.0 0.00 0.17 0.17
20260903003730 0 0.0 0.0 0.00 0.17 0.17
20260903003230 0 0.0 0.0 0.00 0.17 0.17
20260903002706 0 0.0 0.0 0.00 0.17 0.17
20260903001702 0 35 2.0 0.0 0.00 0.17 0.17
20260903001202 78 35 2.0 2.0 0.00 0.17 0.17 88 1014.5
20260903000701 78 35 2.0 3.0 0.00 0.17 0.17 88 1014.5
20260903000204 78 36 2.0 5.0 0.00 0.17 0.17 88 1014.5
20260902235702 78 36 3.0 6.0 0.00 0.17 0.17 88 1014.5
20260902235202 78 66 2.0 6.0 0.00 0.17 0.17 88 1014.5
20260902234202 78 49 2.0 5.0 0.00 0.17 0.17 88 1014.4
20260902233202 78 18 3.0 7.0 0.00 0.17 0.17 89 1014.5
20260902232702 79 22 2.0 6.0 0.00 0.17 0.17 89 1014.4
20260902232202 79 26 2.0 9.0 0.00 0.17 0.17 89 1014.3
20260902231702 79 67 4.0 9.0 0.00 0.17 0.17 89 1014.4
20260902230702 79 14 4.0 11.0 0.00 0.17 0.17 90 1014.3
20260902230201 79 65 2.0 4.0 0.00 0.17 0.17 90 1014.3
20260902225703 79 39 1.0 5.0 0.00 0.17 0.17 90 1014.2
20260902224702 78 83 2.0 5.0 0.00 0.17 0.17 90 1014.4
20260902224151 78 8 3.0 8.0 0.00 0.17 0.17 90 1014.4
20260902223650 78 24 4.0 8.0 0.00 0.17 0.17 90 1014.4
20260902223152 78 29 4.0 7.0 0.00 0.17 0.17 90 1014.5
20260902222651 78 60 3.0 6.0 0.00 0.17 0.17 90 1014.5
20260902222152 78 35 3.0 6.0 0.02 0.17 0.17 90 1014.5
20260902221652 78 2 3.0 6.0 0.06 0.17 0.17 90 1014.5
20260902220649 78 37 2.0 5.0 0.17 0.17 0.17 90 1014.5
20260902220148 77 0 2.0 5.0 0.17 0.17 0.17 90 1014.5
20260902215644 77 32 2.0 6.0 0.17 0.17 0.17 90 1014.5
20260902215144 77 82 2.0 7.0 0.17 0.17 0.17 90 1014.6
20260902214645 77 119 2.0 8.0 0.17 0.17 0.17 90 1014.6
20260902213646 77 131 2.0 7.0 0.17 0.17 0.17 90 1014.5
20260902212139 77 93 4.0 9.0 0.15 0.16 0.15 89 1014.6
20260902211139 80 59 6.0 13.0 0.05 0.06 0.05 87 1014.7
20260902205642 85 117 6.0 13.0 0.00 0.00 0.00 77 1014.4
20260902204641 85 83 4.0 12.0 0.00 0.01 0.00 76 1014.2
20260902204141 85 33 5.0 9.0 0.00 0.01 0.00 76 1014.3
20260902203641 86 300 5.0 11.0 0.00 0.01 0.00 75 1014.1
20260902203142 86 21 6.0 11.0 0.00 0.01 0.00 74 1014.2
20260902202638 87 113 7.0 14.0 0.00 0.01 0.00 71 1014.1
20260902202137 87 55 6.0 14.0 0.00 0.01 0.00 72 1014.0
20260902201638 87 57 6.0 13.0 0.00 0.01 0.00 70 1014.0
20260902201138 87 67 6.0 15.0 0.00 0.01 0.00 70 1014.1
20260902200637 88 59 6.0 15.0 0.00 0.01 0.00 69 1014.1
20260902195638 87 8 6.0 11.0 0.00 0.01 0.00 69 1014.1
20260902195139 86 195 5.0 10.0 0.00 0.01 0.00 70 1014.2
20260902194638 86 75 5.0 11.0 0.00 0.01 0.00 73 1014.2
20260902194139 86 27 5.0 11.0 0.00 0.01 0.00 73 1014.2
20260902193638 86 61 5.0 16.0 0.00 0.01 0.00 72 1014.3
20260902192637 86 11 4.0 10.0 0.00 0.01 0.00 73 1014.3
20260902191638 87 73 5.0 12.0 0.00 0.01 0.00 72 1014.4
20260902191133 87 99 6.0 13.0 0.00 0.01 0.00 72 1014.5
20260902190134 88 94 5.0 11.0 0.00 0.01 0.00 69 1014.4
20260902185633 88 26 5.0 12.0 0.00 0.01 0.00 69 1014.4
20260902185133 88 6 5.0 12.0 0.00 0.01 0.00 69 1014.4
20260902184134 88 102 6.0 12.0 0.00 0.01 0.00 69 1014.5
20260902183633 87 6 6.0 11.0 0.00 0.01 0.00 69 1014.6
20260902182633 87 0 5.0 13.0 0.00 0.01 0.00 70 1014.7
20260902182137 87 343 4.0 12.0 0.00 0.01 0.00 70 1014.7
20260902181631 87 57 5.0 11.0 0.00 0.01 0.00 69 1014.7
20260902180630 89 37 5.0 10.0 0.00 0.01 0.00 67 1014.8
20260902175129 89 115 4.0 11.0 0.00 0.01 0.00 65 1014.9
20260902174629 89 97 5.0 12.0 0.00 0.01 0.00 64 1014.8
20260902174129 88 18 6.0 12.0 0.00 0.01 0.00 66 1014.9
20260902172629 88 46 5.0 11.0 0.00 0.01 0.00 67 1014.9
20260902172129 88 182 4.0 12.0 0.00 0.01 0.00 70 1015.0
20260902171625 88 10 5.0 12.0 0.00 0.01 0.00 70 1015.1
20260902171125 88 21 6.0 14.0 0.00 0.01 0.00 69 1015.2
20260902170625 88 120 6.0 14.0 0.00 0.01 0.00 69 1015.2
20260902170125 88 30 5.0 11.0 0.00 0.01 0.00 69 1015.2
20260902165125 88 31 6.0 15.0 0.00 0.01 0.00 68 1015.4
20260902164626 88 33 6.0 15.0 0.00 0.01 0.00 70 1015.4
20260902164127 89 22 5.0 13.0 0.00 0.01 0.00 68 1015.4
20260902163626 88 47 5.0 9.0 0.00 0.01 0.00 68 1015.5
20260902163126 88 60 4.0 9.0 0.00 0.01 0.00 68 1015.6
20260902162120 87 144 5.0 10.0 0.00 0.01 0.00 70 1015.7
20260902161620 88 16 4.0 10.0 0.00 0.01 0.00 69 1015.8
20260902161120 87 10 4.0 10.0 0.00 0.01 0.00 69 1015.8
20260902160120 86 98 4.0 13.0 0.00 0.01 0.00 72 1015.9
20260902155121 86 6 6.0 13.0 0.00 0.01 0.00 75 1016.2
20260902154621 86 36 5.0 13.0 0.00 0.01 0.00 75 1016.2
20260902154121 86 17 4.0 13.0 0.00 0.01 0.00 74 1016.3
20260902153621 85 56 3.0 9.0 0.00 0.01 0.00 76 1016.3
20260902153121 86 23 4.0 13.0 0.00 0.01 0.00 76 1016.3
20260902152621 86 45 6.0 13.0 0.00 0.01 0.00 77 1016.3
20260902152121 86 15 6.0 12.0 0.00 0.01 0.00 76 1016.3
20260902151619 86 32 5.0 12.0 0.00 0.01 0.00 76 1016.3
20260902151118 86 38 4.0 11.0 0.00 0.01 0.00 76 1016.3
20260902150619 85 46 5.0 11.0 0.00 0.01 0.00 76 1016.3
20260902150119 85 26 5.0 11.0 0.00 0.01 0.00 78 1016.2
20260902145619 85 330 5.0 9.0 0.00 0.01 0.00 77 1016.2
20260902145119 86 13 4.0 10.0 0.00 0.01 0.00 77 1016.3
20260902144119 85 21 6.0 11.0 0.00 0.01 0.00 78 1016.2
20260902143619 84 351 4.0 10.0 0.00 0.01 0.00 79 1016.2
20260902143121 84 33 4.0 10.0 0.00 0.01 0.00 81 1016.1
20260902142619 84 92 4.0 10.0 0.00 0.01 0.00 79 1016.1
20260902142117 84 110 6.0 11.0 0.00 0.01 0.00 83 1016.1
20260902141613 83 331 5.0 11.0 0.00 0.01 0.00 82 1016.1
20260902141113 83 349 5.0 10.0 0.00 0.01 0.00 84 1016.1
20260902140615 83 22 5.0 10.0 0.00 0.01 0.00 83 1016.2
20260902140115 83 20 6.0 10.0 0.00 0.01 0.00 84 1016.2
20260902135615 83 5 5.0 10.0 0.00 0.01 0.00 85 1016.2
20260902135115 83 31 6.0 11.0 0.00 0.01 0.00 86 1016.1
20260902134615 83 306 5.0 11.0 0.00 0.01 0.00 85 1016.2
20260902134115 83 340 4.0 8.0 0.00 0.01 0.00 86 1016.1
20260902133115 82 2 4.0 8.0 0.00 0.01 0.00 87 1016.2
20260902132615 81 340 4.0 9.0 0.00 0.01 0.00 87 1016.2
20260902132112 81 31 4.0 9.0 0.00 0.01 0.00 88 1016.3
20260902131112 80 354 4.0 8.0 0.00 0.01 0.00 92 1016.2
20260902130613 80 8 4.0 9.0 0.00 0.01 0.00 93 1016.2
20260902124613 78 292 3.0 7.0 0.00 0.01 0.00 95 1016.1
20260902124113 78 14 4.0 8.0 0.00 0.01 0.00 95 1016.1
20260902123613 77 348 4.0 8.0 0.00 0.01 0.00 95 1016.2
20260902122602 77 359 3.0 6.0 0.00 0.01 0.00 95 1016.2
20260902122103 77 23 3.0 6.0 0.00 0.01 0.00 95 1016.1
20260902121602 77 42 3.0 6.0 0.00 0.01 0.00 95 1016.1
20260902121101 77 23 3.0 5.0 0.00 0.01 0.00 95 1016.1
20260902120602 77 244 3.0 5.0 0.00 0.01 0.00 95 1016.1
20260902115602 77 227 3.0 6.0 0.00 0.01 0.00 95 1015.9
20260902114602 77 25 3.0 6.0 0.00 0.01 0.00 95 1015.9
20260902114103 77 225 2.0 4.0 0.00 0.01 0.00 95 1015.9
20260902113603 77 217 2.0 4.0 0.00 0.01 0.00 95 1015.9
20260902113100 77 244 3.0 5.0 0.00 0.01 0.00 95 1015.8
20260902112602 77 350 3.0 5.0 0.00 0.01 0.00 95 1015.8
20260902112101 77 324 3.0 4.0 0.00 0.01 0.00 95 1015.7
20260902111601 77 321 2.0 4.0 0.00 0.01 0.00 95 1015.7
20260902111102 77 16 2.0 3.0 0.00 0.01 0.00 95 1015.6
20260902110601 76 240 2.0 4.0 0.00 0.01 0.00 95 1015.5
20260902105602 76 17 2.0 4.0 0.00 0.01 0.00 95 1015.5
20260902105101 76 19 2.0 4.0 0.00 0.01 0.00 95 1015.5
20260902104601 76 222 3.0 4.0 0.00 0.01 0.00 95 1015.4
20260902104103 76 245 3.0 5.0 0.00 0.01 0.00 95 1015.4
20260902103601 76 27 3.0 5.0 0.00 0.01 0.00 95 1015.4
20260902102604 76 356 2.0 3.0 0.00 0.01 0.00 95 1015.4
20260902101101 76 230 1.0 4.0 0.00 0.01 0.00 95 1015.2
20260902100601 76 0 2.0 4.0 0.00 0.01 0.00 95 1015.2
20260902095601 76 237 3.0 4.0 0.00 0.01 0.00 95 1015.2
20260902095101 76 3 3.0 4.0 0.00 0.01 0.00 95 1015.1
20260902094601 76 226 3.0 4.0 0.00 0.01 0.00 95 1015.1
20260902093601 76 232 3.0 4.0 0.00 0.01 0.00 95 1015.0
20260902093100 76 1 3.0 4.0 0.00 0.01 0.00 94 1014.9
20260902092601 76 11 2.0 4.0 0.00 0.01 0.00 94 1014.9
20260902092105 76 25 3.0 6.0 0.00 0.01 0.00 94 1014.9
20260902091601 76 30 2.0 6.0 0.00 0.01 0.00 94 1014.9
20260902091101 76 13 2.0 4.0 0.00 0.01 0.00 94 1014.8
20260902090602 76 219 2.0 4.0 0.00 0.01 0.00 94 1014.7
20260902085101 76 268 3.0 5.0 0.00 0.01 0.00 94 1014.8
20260902084601 76 4 3.0 5.0 0.00 0.01 0.00 94 1014.8
20260902084102 76 1 3.0 5.0 0.00 0.01 0.00 94 1014.9
20260902083601 76 17 2.0 4.0 0.00 0.01 0.00 94 1014.9
20260902083102 76 228 2.0 3.0 0.00 0.01 0.00 94 1015.0
20260902082602 76 243 2.0 3.0 0.00 0.01 0.00 94 1015.0
20260902082102 76 351 2.0 4.0 0.00 0.01 0.00 94 1015.0
20260902081602 76 18 3.0 4.0 0.00 0.01 0.00 94 1015.0
20260902081101 76 232 3.0 4.0 0.00 0.01 0.00 94 1015.0
20260902080602 76 13 3.0 4.0 0.00 0.01 0.00 94 1015.0
20260902075603 76 18 3.0 4.0 0.00 0.01 0.00 94 1015.0
20260902075102 76 264 2.0 4.0 0.00 0.01 0.00 94 1015.0
20260902074102 76 2 3.0 4.0 0.00 0.01 0.00 94 1015.0